Airfield :
LOGIN :

Register | Disclaimer

   EN    FR    IT 

 










Legend :    VFR   Marginal VFR   IFR   Intensive IFR   Very Intensive IFR
Visi :
Ceiling :
>= 8 km
>= 3000ft
5 to 8 km
1000 to 3000 ft
1500m to 5 km
500 to 1000 ft
800 to 1500m
200 to 500 ft
< 800m
< 200 ft
Symbols :   Thunderstorms  Fog  Heavy snow  Heavy precipitations  Wind > 20 kt
SIGMETs :     Misc.  Thunderstorms  Icing  Turbulence  Mountain Waves  Volcanic Ashes







- Airport Elevation : 456 ft
- IATA code : QPZ


LIMS - San Damiano Air Base Piacenza

CURRENT METAR :
  • 221155Z 08002KT 0800 R30/1100 R12/0900 -RASN FG SCT005 BKN015 01/M01 Q1007

EXPIRED METARs :
  • 221055Z 09002KT 0700 R30/0900 R12/0800 -RASN FG SCT003 BKN010 01/M01 Q1007
  • 220955Z 11001KT 0800 R30/0800 R12/0900 -RASN FG SCT007 BKN010 01/M01 Q1007 RMK OVC VIS MIN 0800 WIND THR30 /////KT AMB

Expired Forecast.
No reported NOTAMs for that airfield.



MET'MAP, your aeronautical weather chart ! - Copyright ORBIFLY December 2007 - Disclaimer

ORBIFLY MET'MAP TEAM :

Programming & Development : Alexandra Zaïnal
Concept & Development : Baudouin d'Aumeries
Co-Development & Prog : Marc-Olivier Méhu
Technical & hardware support : Manuel Goepfert

Contact : metmap@orbifly.com




SOURCES & CREDITS :

   NOAA